CST,Max TemperatureF,Mean TemperatureF,Min TemperatureF,Max Dew PointF,MeanDew PointF,Min DewpointF,Max Humidity, Mean Humidity, Min Humidity, Max Sea Level PressureIn, Mean Sea Level PressureIn, Min Sea Level PressureIn, Max VisibilityMiles, Mean VisibilityMiles, Min VisibilityMiles, Max Wind SpeedMPH, Mean Wind SpeedMPH, Max Gust SpeedMPH,PrecipitationIn, CloudCover, Events, WindDirDegrees
2013-1-1,23,15,7,14,8,4,83,67,50,30.32,30.25,30.18,10,10,9,12,5,16,0.00,2,,350
2013-1-2,26,16,6,15,9,2,92,76,60,30.28,30.21,30.17,10,8,0,15,7,18,0.00,2,Fog,195
2013-1-3,31,23,14,25,18,9,85,72,58,30.39,30.28,30.15,10,10,8,18,7,25,T,6,,269
2013-1-4,34,22,10,22,15,6,84,73,61,30.38,30.33,30.29,10,10,10,20,8,24,0.00,0,,233
2013-1-5,36,27,17,32,26,16,96,87,78,30.28,30.16,30.02,10,9,1,17,9,24,0.03,6,Snow,209
2013-1-6,37,28,18,32,19,14,89,79,68,30.38,30.22,29.98,10,9,6,20,9,28,0.00,5,,286
2013-1-7,39,29,19,28,23,15,92,77,50,30.38,30.26,30.15,10,9,5,20,8,32,0.00,0,,188
2013-1-8,39,32,26,32,28,23,89,75,49,30.19,30.12,30.07,10,8,4,18,8,24,0.00,2,,182
2013-1-9,50,39,28,33,28,24,89,66,28,30.53,30.37,30.11,10,10,10,14,8,23,0.00,0,,280
2013-1-10,51,40,28,50,36,22,100,87,38,30.49,30.10,29.81,10,5,0,18,8,26,0.75,6,Fog-Rain,115
2013-1-11,57,52,47,52,49,46,100,89,77,29.83,29.75,29.69,10,7,2,24,15,30,0.47,6,Rain,190
2013-1-12,52,39,26,46,31,23,93,78,62,30.00,29.92,29.75,10,8,2,20,10,25,0.19,5,Rain-Snow,317
2013-1-13,26,19,12,23,14,7,92,80,67,30.35,30.11,29.93,10,10,3,16,9,24,T,7,,311
2013-1-14,26,19,11,13,10,7,88,72,55,30.50,30.47,30.37,10,10,9,9,3,13,0.00,0,,298
2013-1-15,29,21,12,16,13,7,88,73,57,30.48,30.35,30.14,10,10,7,10,2,13,0.00,0,,70
2013-1-16,37,25,13,26,19,10,88,70,52,30.17,30.06,29.91,10,10,8,23,8,31,0.00,4,,233
2013-1-17,35,28,20,28,20,13,85,63,41,30.47,30.34,30.10,10,10,9,15,6,21,0.00,2,,329
2013-1-18,45,32,19,30,24,14,84,69,53,30.48,30.23,30.02,10,10,10,30,14,38,0.00,1,,195
2013-1-19,52,41,30,35,30,19,78,64,50,30.10,29.95,29.83,10,10,10,24,14,38,0.00,0,,239
2013-1-20,30,23,15,12,8,5,74,60,46,30.37,30.31,30.15,10,10,6,21,10,33,T,5,Snow,304
2013-1-21,16,10,4,8,-2,-8,76,59,42,30.41,30.33,30.24,10,10,4,22,13,30,T,3,Snow,293
2013-1-22,15,9,2,1,-4,-8,79,61,42,30.49,30.43,30.39,10,10,10,14,7,18,0.00,3,,297
2013-1-23,34,24,13,15,7,1,61,50,38,30.41,30.29,30.14,10,10,10,18,9,29,0.00,5,,256
2013-1-24,22,15,7,8,2,-4,69,55,41,30.67,30.52,30.33,10,10,2,16,9,25,T,1,Snow,66
2013-1-25,37,29,20,19,14,5,74,57,40,30.30,30.15,30.04,10,10,4,21,10,26,T,4,Snow,239
2013-1-26,31,22,12,16,9,5,76,58,39,30.44,30.37,30.28,10,10,10,12,5,16,0.00,0,,110
2013-1-27,44,36,27,43,29,16,96,77,58,30.37,30.09,29.92,10,4,0,21,12,29,0.22,7,Fog-Rain,157
2013-1-28,56,50,44,55,50,44,100,96,92,29.95,29.88,29.78,3,1,0,18,8,24,T,8,Fog,175
2013-1-29,64,57,50,59,54,50,100,92,84,29.77,29.55,29.40,10,4,0,23,11,30,1.76,8,Fog-Rain-Thunderstorm,208
2013-1-30,51,35,18,41,29,11,100,84,68,29.81,29.47,29.29,10,6,2,28,12,38,0.29,8,Rain-Snow,292
2013-1-31,22,14,5,15,5,-4,74,65,56,30.33,30.04,29.82,10,8,2,25,16,37,T,7,Snow,292